Tracking 35055 objects as of 18-Aug-2026
HD Live streaming from Space Station
objects crossing your sky now

PHASMA-LAMARR

Track PHASMA-LAMARR now!
10-day predictions
PHASMA-LAMARR is classified as:


NORAD ID: 66683
Int'l Code: 2025-276T
Launch date: November 28, 2025
Source: (TBD)
Launch site: AIR FORCE WESTERN TEST RANGE (AFWTR)
Your satellite tracking list
Your tracking list is empty




NASA's NSSDC Master Catalog

Two Line Element Set (TLE):
1 66683U 25276T   26230.12993540  .00002158  00000-0  10725-3 0  9991
2 66683  97.4206 302.3913 0007148 129.4352 230.7516 15.18692515 39803
Source of the keplerian elements: AFSPC